Weather in Kazackoe

Ukraine / Odesa District     47°59′32″N   29°40′25″E
temp.,
°C
wind,
m/s
gust,
m/s
humid.,
%
clouds,
%
prec.,
mm/h
press.,
hPa
HPBL,
m
24 may, tue
tue2400:00+9nnw22875 0.0 101210
03:00+8nnw22895 0.0 101311
06:00+8nw229010 0.0 101335
09:00+14nnw33675 0.0 1013495
12:00+18nnw344643 0.0 10132074
15:00+19nnw233944 0.0 10132329
18:00+18w225498 0.0 1014665
21:00+14nne235915 0.0 101540
25 may, wed
wed2500:00+10ese22610 0.0 101714
03:00+9se2261100 0.0 101811
06:00+10sse226319 0.0 101820
09:00+16sse34515 0.0 1019431
12:00+20sse444467 0.0 10181628
15:00+21ssw4549100 0.0 10171758
18:00+21sse4655100 0.0 1016649
21:00+16s6136299 0.0 1017433
26 may, thu
thu2600:00+15s7165470 0.0 1016472
03:00+12s6167763 0.3 1015437
06:00+12ssw61290100 1.1 1014436
09:00+14wsw588999 2.3 1015472
12:00+17nw697668 0.1 10161196
15:00+21nw7104512 0.1 10162360
18:00+21nw610515 0.0 10162304
21:00+15nw47732 0.0 101898
27 may, fri
fri2700:00+12w338262 0.0 101941
03:00+14wsw497299 0.0 1018178
06:00+15wsw4106371 0.0 1018248
09:00+17w59645 0.0 1018500
12:00+22w57485 0.0 10171649
15:00+24wsw4643100 0.0 10152439
18:00+23wsw255399 0.0 1013921
21:00+20s345929 0.0 101175
28 may, sat
sat2800:00+18ssw6146679 0.0 1010348
03:00+18wnw7136519 0.0 1010575
06:00+12nw25845 0.0 1012189
09:00+15nw4565100 0.0 1012628
12:00+16wnw4562100 0.0 1013847
15:00+16nw4560100 0.0 10131054
18:00+14wnw1165100 0.1 101286
21:00+12nw227091 0.1 101431